GW3457 Weather Reports


Display with metric or nautical units.
time (UTC)temp
F
wind
direction
speed
MPH
gust
MPH
rain 1hr
in
rain 24hr
in
rain mn
in
humidity
%
barometer
mb
20260901110058 70 0 0.0 0.0 0.00 0.00 0.00 93 1017.6
20260901104552 70 0 0.0 0.0 0.00 0.00 0.00 93 1017.5
20260901103100 70 0 0.0 3.0 0.00 0.00 0.00 92 1017.4
20260901101558 71 0 0.0 1.0 0.00 0.00 0.00 92 1017.3
20260901100103 71 0 0.0 2.0 0.00 0.00 0.00 92 1017.3
20260901094604 71 0 0.0 3.0 0.00 0.00 0.00 92 1017.3
20260901093057 71 57 1.0 3.0 0.00 0.00 0.00 92 1017.4
20260901091620 71 0 0.0 2.0 0.00 0.00 0.00 92 1017.4
20260901090059 71 0 0.0 1.0 0.00 0.00 0.00 92 1017.2
20260901084605 71 194 1.0 3.0 0.00 0.00 0.00 92 1017.3
20260901083104 71 190 0.0 3.0 0.00 0.00 0.00 93 1017.5
20260901081551 71 196 1.0 3.0 0.00 0.00 0.00 93 1017.2
20260901080105 71 0 0.0 2.0 0.00 0.00 0.00 92 1017.5
20260901074558 71 186 0.0 1.0 0.00 0.00 0.00 92 1017.7
20260901073055 71 0 0.0 3.0 0.00 0.00 0.00 92 1017.7
20260901071550 71 166 0.0 3.0 0.00 0.00 0.00 92 1017.7
20260901070055 71 146 1.0 3.0 0.00 0.00 0.00 92 1017.6
20260901064552 71 221 1.0 3.0 0.00 0.00 0.00 92 1017.6
20260901063055 72 220 1.0 3.0 0.00 0.00 0.00 92 1017.8
20260901061558 72 0 0.0 1.0 0.00 0.00 0.00 92 1018.1
20260901060057 72 0 0.0 2.0 0.00 0.00 0.00 92 1018.2
20260901054601 72 0 0.0 3.0 0.00 0.00 0.00 91 1018.3
20260901053057 72 36 1.0 4.0 0.00 0.00 0.00 91 1018.4
20260901051557 72 40 2.0 3.0 0.00 0.00 0.00 91 1018.4
20260901050052 72 0 0.0 2.0 0.00 0.00 0.00 90 1018.3
20260901044603 73 165 0.0 2.0 0.00 0.00 0.00 90 1018.3
20260901043101 73 0 0.0 4.0 0.00 0.00 0.00 90 1018.1
20260901041550 73 195 2.0 4.0 0.00 0.00 0.00 90 1018.2
20260901040055 73 0 1.0 4.0 0.00 0.00 0.00 90 1018.3
20260901034600 73 199 0.0 2.0 0.00 0.00 0.00 90 1018.6
20260901033100 73 199 1.0 2.0 0.00 0.00 0.00 90 1018.7
20260901031554 73 199 0.0 3.0 0.00 0.00 0.00 90 1018.9
20260901024550 74 0 0.0 4.0 0.00 0.00 0.00 89 1019.1
20260901023102 74 180 0.0 2.0 0.00 0.00 0.00 89 1019.2
20260901021602 74 0 0.0 2.0 0.00 0.00 0.00 88 1019.1
20260901020052 74 175 0.0 2.0 0.00 0.00 0.00 88 1019.1
20260901014601 75 188 0.0 2.0 0.00 0.00 0.00 87 1018.8
20260901013116 75 204 0.0 3.0 0.00 0.00 0.00 87 1018.8
20260901011551 75 0 0.0 2.0 0.00 0.00 0.00 86 1018.5
20260901004555 77 0 0.0 1.0 0.00 0.00 0.00 83 1018.1
20260901003045 77 0 0.0 2.0 0.00 0.00 0.00 82 1018.0
20260901001600 78 259 0.0 2.0 0.00 0.00 0.00 81 1017.8
20260831234634 80 0 0.0 0.0 0.00 0.00 0.00 74 1017.9
20260831233055 81 0 0.0 1.0 0.00 0.00 0.00 74 1017.9
20260831231558 82 0 0.0 1.0 0.00 0.00 0.00 72 1017.9
20260831230054 82 0 0.0 2.0 0.00 0.00 0.00 71 1018.0
20260831224551 83 0 0.0 2.0 0.00 0.00 0.00 69 1018.1
20260831223059 84 259 0.0 2.0 0.00 0.00 0.00 69 1018.2
20260831221603 84 163 1.0 3.0 0.00 0.00 0.00 66 1018.4
20260831214606 84 211 2.0 6.0 0.00 0.00 0.00 66 1018.2
20260831213057 84 233 2.0 7.0 0.00 0.00 0.00 65 1018.4
20260831211552 84 187 1.0 5.0 0.00 0.00 0.00 64 1018.7
20260831210058 85 224 4.0 6.0 0.00 0.00 0.00 63 1018.7
20260831204558 85 219 3.0 7.0 0.00 0.00 0.00 63 1018.6
20260831203059 84 145 2.0 5.0 0.00 0.00 0.00 66 1018.9
20260831201620 85 141 3.0 6.0 0.00 0.00 0.00 65 1019.3
20260831200052 83 217 2.0 6.0 0.00 0.00 0.00 66 1019.3
20260831194550 83 215 2.0 7.0 0.00 0.00 0.00 69 1019.2
20260831193116 82 296 2.0 6.0 0.00 0.00 0.00 69 1019.4
20260831191556 82 0 1.0 7.0 0.00 0.00 0.00 68 1019.6
20260831190054 83 263 2.0 6.0 0.00 0.00 0.00 67 1019.6
20260831184550 83 266 2.0 7.0 0.00 0.00 0.00 67 1019.6
20260831183104 83 219 3.0 7.0 0.00 0.00 0.00 66 1019.7
20260831181610 83 232 1.0 7.0 0.00 0.00 0.00 67 1019.8
20260831180050 82 0 1.0 5.0 0.00 0.00 0.00 68 1019.9
20260831174549 83 0 0.0 2.0 0.00 0.00 0.00 67 1020.1
20260831173103 82 286 1.0 5.0 0.00 0.00 0.00 67 1020.0
20260831171548 84 236 2.0 5.0 0.00 0.00 0.00 65 1020.1
20260831170052 84 313 1.0 3.0 0.00 0.00 0.00 65 1020.0
20260831164606 82 246 1.0 8.0 0.00 0.00 0.00 67 1020.3
20260831163051 84 217 3.0 6.0 0.00 0.00 0.00 65 1020.5
20260831161601 83 338 2.0 4.0 0.00 0.00 0.00 67 1020.6
20260831160107 81 326 2.0 4.0 0.00 0.00 0.00 69 1020.5
20260831154621 81 0 1.0 3.0 0.00 0.00 0.00 70 1020.5
20260831153101 81 298 0.0 3.0 0.00 0.00 0.00 69 1020.9
20260831151601 80 159 0.0 5.0 0.00 0.00 0.00 71 1020.9
20260831144558 80 175 0.0 3.0 0.00 0.00 0.00 71 1021.1
20260831143049 79 74 0.0 3.0 0.00 0.00 0.00 72 1021.1
20260831141604 78 342 0.0 4.0 0.00 0.00 0.00 74 1021.2
20260831140054 76 53 2.0 5.0 0.00 0.00 0.00 77 1021.1
20260831134559 75 284 1.0 3.0 0.00 0.00 0.00 78 1021.2
20260831133051 75 122 1.0 4.0 0.00 0.00 0.00 79 1021.1
20260831131603 74 152 1.0 4.0 0.00 0.00 0.00 82 1021.3
20260831130100 72 0 0.0 3.0 0.00 0.00 0.00 84 1021.1
20260831124552 72 15 2.0 4.0 0.00 0.00 0.00 85 1021.2
20260831123052 71 14 1.0 3.0 0.00 0.00 0.00 87 1020.9
20260831121556 70 0 0.0 3.0 0.00 0.00 0.00 88 1021.1
20260831120054 70 0 0.0 2.0 0.00 0.00 0.00 89 1021.0
20260831114603 70 21 0.0 2.0 0.00 0.00 0.00 89 1020.9
20260831113050 69 28 0.0 2.0 0.00 0.00 0.00 89 1020.8
20260831111556 69 34 0.0 2.0 0.00 0.00 0.00 89 1020.6